Time,TemperatureF,DewpointF,PressureIn,WindDirection,WindDirectionDegrees,WindSpeedMPH,WindSpeedGustMPH,Humidity,HourlyPrecipIn,Conditions,Clouds,dailyrainin,SoftwareType,DateUTC
2013-02-14 00:01:00,28.0,20.0,30.13,SW,218,0.0,2.0,70,0.00,,,0.00,,2013-02-14 07:01:00,
2013-02-14 00:11:00,28.0,20.0,30.13,SW,219,0.0,0.0,70,0.00,,,0.00,,2013-02-14 07:11:00,
2013-02-14 00:21:00,28.0,20.0,30.13,SW,219,0.0,0.0,70,0.00,,,0.00,,2013-02-14 07:21:00,
2013-02-14 00:31:00,28.0,20.0,30.13,SW,219,0.0,1.0,71,0.00,,,0.00,,2013-02-14 07:31:00,
2013-02-14 00:41:00,28.0,20.0,30.13,SW,219,0.0,1.0,71,0.00,,,0.00,,2013-02-14 07:41:00,
2013-02-14 00:52:00,28.0,20.0,30.14,SW,219,0.0,0.0,71,0.00,,,0.00,,2013-02-14 07:52:00,
2013-02-14 01:01:00,28.0,20.0,30.14,SW,219,0.0,2.0,71,0.00,,,0.00,,2013-02-14 08:01:00,
2013-02-14 01:11:00,28.0,20.0,30.14,SW,219,0.0,2.0,71,0.00,,,0.00,,2013-02-14 08:11:00,
2013-02-14 01:21:00,28.0,20.0,30.13,SW,219,0.0,0.0,70,0.00,,,0.00,,2013-02-14 08:21:00,
2013-02-14 01:31:00,27.0,20.0,30.13,SSE,164,0.0,2.0,73,0.00,,,0.00,,2013-02-14 08:31:00,
2013-02-14 01:43:00,27.0,20.0,30.13,SSE,164,0.0,2.0,73,0.00,,,0.00,,2013-02-14 08:43:00,
2013-02-14 01:52:00,26.0,19.0,30.13,SSE,164,0.0,0.0,74,0.00,,,0.00,,2013-02-14 08:52:00,
2013-02-14 02:01:00,26.0,19.0,30.12,SSE,164,1.0,2.0,76,0.00,,,0.00,,2013-02-14 09:01:00,
2013-02-14 02:11:00,27.0,20.0,30.12,SSE,164,0.0,2.0,73,0.00,,,0.00,,2013-02-14 09:11:00,
2013-02-14 02:21:00,27.0,20.0,30.12,SSE,164,0.0,2.0,73,0.00,,,0.00,,2013-02-14 09:21:00,
2013-02-14 02:31:00,25.0,19.0,30.12,NNW,327,0.0,3.0,77,0.00,,,0.00,,2013-02-14 09:31:00,
2013-02-14 02:41:00,25.0,19.0,30.12,NNW,327,0.0,3.0,77,0.00,,,0.00,,2013-02-14 09:41:00,
2013-02-14 02:52:00,25.0,19.0,30.12,NW,315,0.0,2.0,79,0.00,,,0.00,,2013-02-14 09:52:00,
2013-02-14 03:01:00,25.0,19.0,30.12,NW,315,1.0,2.0,77,0.00,,,0.00,,2013-02-14 10:01:00,
2013-02-14 03:11:00,26.0,19.0,30.12,NW,314,2.0,2.0,76,0.00,,,0.00,,2013-02-14 10:11:00,
2013-02-14 03:21:00,26.0,19.0,30.12,NW,314,2.0,2.0,76,0.00,,,0.00,,2013-02-14 10:21:00,
2013-02-14 03:31:00,26.0,19.0,30.12,SSW,213,0.0,1.0,74,0.00,,,0.00,,2013-02-14 10:31:00,
2013-02-14 03:41:00,26.0,19.0,30.12,SSW,213,0.0,1.0,74,0.00,,,0.00,,2013-02-14 10:41:00,
2013-02-14 03:52:00,26.0,19.0,30.11,SSW,213,2.0,2.0,75,0.00,,,0.00,,2013-02-14 10:52:00,
2013-02-14 04:01:00,27.0,20.0,30.11,South,180,3.0,4.0,74,0.00,,,0.00,,2013-02-14 11:01:00,
2013-02-14 04:11:00,28.0,20.0,30.10,South,180,0.0,1.0,70,0.00,,,0.00,,2013-02-14 11:11:00,
2013-02-14 04:21:00,28.0,20.0,30.10,South,180,0.0,1.0,70,0.00,,,0.00,,2013-02-14 11:21:00,
2013-02-14 04:31:00,26.0,18.0,30.11,South,180,0.0,0.0,72,0.00,,,0.00,,2013-02-14 11:31:00,
2013-02-14 04:41:00,26.0,18.0,30.11,South,180,0.0,0.0,72,0.00,,,0.00,,2013-02-14 11:41:00,
2013-02-14 04:52:00,25.0,18.0,30.11,South,180,0.0,0.0,74,0.00,,,0.00,,2013-02-14 11:52:00,
2013-02-14 05:01:00,25.0,19.0,30.11,South,180,2.0,3.0,77,0.00,,,0.00,,2013-02-14 12:01:00,
2013-02-14 05:11:00,25.0,19.0,30.11,South,180,2.0,3.0,77,0.00,,,0.00,,2013-02-14 12:11:00,
2013-02-14 05:21:00,26.0,18.0,30.12,NW,307,0.0,2.0,72,0.00,,,0.00,,2013-02-14 12:21:00,
2013-02-14 05:31:00,25.0,18.0,30.12,NW,308,0.0,0.0,74,0.00,,,0.00,,2013-02-14 12:31:00,
2013-02-14 05:41:00,25.0,18.0,30.12,NW,306,1.0,2.0,75,0.00,,,0.00,,2013-02-14 12:41:00,
2013-02-14 05:53:00,25.0,18.0,30.12,NW,306,1.0,2.0,75,0.00,,,0.00,,2013-02-14 12:53:00,
2013-02-14 06:01:00,27.0,19.0,30.12,NW,306,0.0,2.0,71,0.00,,,0.00,,2013-02-14 13:01:00,
2013-02-14 06:11:00,27.0,19.0,30.11,WNW,297,1.0,2.0,70,0.00,,,0.00,,2013-02-14 13:11:00,
2013-02-14 06:21:00,27.0,19.0,30.11,WNW,297,1.0,2.0,70,0.00,,,0.00,,2013-02-14 13:21:00,
2013-02-14 06:31:00,28.0,20.0,30.11,SSW,194,0.0,4.0,70,0.00,,,0.00,,2013-02-14 13:31:00,
2013-02-14 06:41:00,26.0,18.0,30.13,SSW,194,0.0,0.0,72,0.00,,,0.00,,2013-02-14 13:41:00,
2013-02-14 06:51:00,26.0,18.0,30.13,SSW,194,0.0,0.0,72,0.00,,,0.00,,2013-02-14 13:51:00,
2013-02-14 07:01:00,25.0,18.0,30.11,SSW,192,0.0,1.0,74,0.00,,,0.00,,2013-02-14 14:01:00,
2013-02-14 07:11:00,24.0,18.0,30.11,SSW,192,0.0,2.0,77,0.00,,,0.00,,2013-02-14 14:11:00,
2013-02-14 07:21:00,24.0,18.0,30.11,SSW,192,0.0,2.0,77,0.00,,,0.00,,2013-02-14 14:21:00,
2013-02-14 07:31:00,24.0,18.0,30.11,SSW,192,0.0,0.0,78,0.00,,,0.00,,2013-02-14 14:31:00,
2013-02-14 07:41:00,24.0,18.0,30.11,SSW,192,0.0,0.0,78,0.00,,,0.00,,2013-02-14 14:41:00,
2013-02-14 07:52:00,25.0,19.0,30.12,SSW,194,0.0,2.0,77,0.00,,,0.00,,2013-02-14 14:52:00,
2013-02-14 08:01:00,27.0,20.0,30.12,South,190,0.0,4.0,74,0.00,,,0.00,,2013-02-14 15:01:00,
2013-02-14 08:11:00,28.0,21.0,30.14,South,190,0.0,1.0,74,0.00,,,0.00,,2013-02-14 15:11:00,
2013-02-14 08:21:00,28.0,21.0,30.14,South,190,0.0,1.0,74,0.00,,,0.00,,2013-02-14 15:21:00,
2013-02-14 08:31:00,31.0,22.0,30.15,South,190,0.0,2.0,69,0.00,,,0.00,,2013-02-14 15:31:00,
2013-02-14 08:41:00,31.0,22.0,30.15,South,190,0.0,2.0,69,0.00,,,0.00,,2013-02-14 15:41:00,
2013-02-14 08:52:00,34.0,23.0,30.16,South,190,2.0,3.0,64,0.00,,,0.00,,2013-02-14 15:52:00,
2013-02-14 09:01:00,36.0,23.0,30.16,South,178,0.0,4.0,58,0.00,,,0.00,,2013-02-14 16:01:00,
2013-02-14 09:11:00,37.0,22.0,30.16,NNE,28,2.0,3.0,55,0.00,,,0.00,,2013-02-14 16:11:00,
2013-02-14 09:21:00,37.0,22.0,30.16,NNE,28,2.0,3.0,55,0.00,,,0.00,,2013-02-14 16:21:00,
2013-02-14 09:31:00,37.0,22.0,30.16,NNE,32,4.0,5.0,54,0.00,,,0.00,,2013-02-14 16:31:00,
2013-02-14 09:41:00,37.0,22.0,30.16,NNE,32,4.0,5.0,54,0.00,,,0.00,,2013-02-14 16:41:00,
2013-02-14 09:52:00,38.0,22.0,30.16,NE,54,2.0,4.0,53,0.00,,,0.00,,2013-02-14 16:52:00,
2013-02-14 10:01:00,39.0,22.0,30.16,NE,36,3.0,5.0,50,0.00,,,0.00,,2013-02-14 17:01:00,
2013-02-14 10:11:00,40.0,22.0,30.15,NNE,32,4.0,7.0,48,0.00,,,0.00,,2013-02-14 17:11:00,
2013-02-14 10:21:00,40.0,22.0,30.15,NNE,32,4.0,7.0,48,0.00,,,0.00,,2013-02-14 17:21:00,
2013-02-14 10:31:00,41.0,22.0,30.15,NW,322,3.0,5.0,47,0.00,,,0.00,,2013-02-14 17:31:00,
2013-02-14 10:41:00,41.0,22.0,30.15,NW,322,3.0,5.0,47,0.00,,,0.00,,2013-02-14 17:41:00,
2013-02-14 10:52:00,42.0,23.0,30.15,NNE,24,6.0,10.0,46,0.00,,,0.00,,2013-02-14 17:52:00,
2013-02-14 11:01:00,42.0,22.0,30.15,North,9,8.0,12.0,45,0.00,,,0.00,,2013-02-14 18:01:00,
2013-02-14 11:11:00,42.0,22.0,30.15,North,9,8.0,12.0,45,0.00,,,0.00,,2013-02-14 18:11:00,
2013-02-14 11:22:00,42.0,22.0,30.15,NNE,28,8.0,16.0,45,0.00,,,0.00,,2013-02-14 18:22:00,
2013-02-14 11:31:00,42.0,22.0,30.15,NE,50,8.0,11.0,45,0.00,,,0.00,,2013-02-14 18:31:00,
2013-02-14 11:41:00,42.0,22.0,30.15,NE,50,8.0,11.0,45,0.00,,,0.00,,2013-02-14 18:41:00,
2013-02-14 11:52:00,43.0,23.0,30.14,NNE,24,2.0,14.0,45,0.00,,,0.00,,2013-02-14 18:52:00,
2013-02-14 12:01:00,43.0,23.0,30.15,ENE,61,6.0,14.0,44,0.00,,,0.00,,2013-02-14 19:01:00,
2013-02-14 12:11:00,44.0,22.0,30.14,North,9,5.0,10.0,42,0.00,,,0.00,,2013-02-14 19:11:00,
2013-02-14 12:21:00,44.0,22.0,30.14,North,9,5.0,10.0,42,0.00,,,0.00,,2013-02-14 19:21:00,
2013-02-14 12:31:00,45.0,22.0,30.14,NE,51,3.0,11.0,40,0.00,,,0.00,,2013-02-14 19:31:00,
2013-02-14 12:41:00,45.0,22.0,30.14,NE,51,3.0,11.0,40,0.00,,,0.00,,2013-02-14 19:41:00,
2013-02-14 12:52:00,45.0,22.0,30.15,NE,42,3.0,11.0,40,0.00,,,0.00,,2013-02-14 19:52:00,
2013-02-14 13:01:00,45.0,23.0,30.14,ENE,72,3.0,9.0,41,0.00,,,0.00,,2013-02-14 20:01:00,
2013-02-14 13:11:00,46.0,21.0,30.13,NNE,26,2.0,11.0,37,0.00,,,0.00,,2013-02-14 20:11:00,
2013-02-14 13:21:00,46.0,21.0,30.13,NNE,26,2.0,11.0,37,0.00,,,0.00,,2013-02-14 20:21:00,
2013-02-14 13:31:00,47.0,22.0,30.13,East,99,4.0,9.0,37,0.00,,,0.00,,2013-02-14 20:31:00,
2013-02-14 13:41:00,47.0,22.0,30.13,East,99,4.0,9.0,37,0.00,,,0.00,,2013-02-14 20:41:00,
2013-02-14 13:52:00,48.0,21.0,30.13,ESE,106,3.0,7.0,34,0.00,,,0.00,,2013-02-14 20:52:00,
2013-02-14 14:01:00,49.0,22.0,30.13,NE,52,2.0,9.0,34,0.00,,,0.00,,2013-02-14 21:01:00,
2013-02-14 14:11:00,49.0,22.0,30.13,NE,52,2.0,9.0,34,0.00,,,0.00,,2013-02-14 21:11:00,
2013-02-14 14:21:00,49.0,21.0,30.12,North,9,6.0,10.0,33,0.00,,,0.00,,2013-02-14 21:21:00,
2013-02-14 14:31:00,50.0,23.0,30.13,East,83,5.0,10.0,34,0.00,,,0.00,,2013-02-14 21:31:00,
2013-02-14 14:41:00,50.0,23.0,30.13,East,83,5.0,10.0,34,0.00,,,0.00,,2013-02-14 21:41:00,
2013-02-14 14:51:00,50.0,21.0,30.13,NNE,24,6.0,8.0,31,0.00,,,0.00,,2013-02-14 21:51:00,
2013-02-14 15:01:00,50.0,21.0,30.12,East,85,2.0,11.0,31,0.00,,,0.00,,2013-02-14 22:01:00,
2013-02-14 15:11:00,50.0,21.0,30.13,ENE,76,4.0,10.0,31,0.00,,,0.00,,2013-02-14 22:11:00,
2013-02-14 15:21:00,50.0,21.0,30.13,ENE,76,4.0,10.0,31,0.00,,,0.00,,2013-02-14 22:21:00,
2013-02-14 15:31:00,50.0,22.0,30.12,ENE,77,4.0,14.0,33,0.00,,,0.00,,2013-02-14 22:31:00,
2013-02-14 15:41:00,50.0,22.0,30.12,ENE,77,4.0,14.0,33,0.00,,,0.00,,2013-02-14 22:41:00,
2013-02-14 15:51:00,50.0,21.0,30.12,NNE,24,6.0,12.0,32,0.00,,,0.00,,2013-02-14 22:51:00,
2013-02-14 16:01:00,50.0,22.0,30.11,North,360,4.0,10.0,33,0.00,,,0.00,,2013-02-14 23:01:00,
2013-02-14 16:11:00,50.0,22.0,30.11,North,360,4.0,10.0,33,0.00,,,0.00,,2013-02-14 23:11:00,
2013-02-14 16:21:00,50.0,22.0,30.11,ENE,63,7.0,11.0,33,0.00,,,0.00,,2013-02-14 23:21:00,
2013-02-14 16:31:00,50.0,22.0,30.12,NW,306,10.0,16.0,33,0.00,,,0.00,,2013-02-14 23:31:00,
2013-02-14 16:41:00,50.0,22.0,30.12,NW,306,10.0,16.0,33,0.00,,,0.00,,2013-02-14 23:41:00,
2013-02-14 16:52:00,49.0,22.0,30.12,NNW,345,6.0,13.0,34,0.00,,,0.00,,2013-02-14 23:52:00,
2013-02-14 17:01:00,49.0,23.0,30.12,NNW,327,9.0,16.0,35,0.00,,,0.00,,2013-02-15 00:01:00,
2013-02-14 17:11:00,49.0,23.0,30.12,NNW,327,9.0,16.0,35,0.00,,,0.00,,2013-02-15 00:11:00,
2013-02-14 17:21:00,48.0,22.0,30.12,North,10,5.0,14.0,35,0.00,,,0.00,,2013-02-15 00:21:00,
2013-02-14 17:31:00,48.0,22.0,30.12,NE,41,4.0,13.0,35,0.00,,,0.00,,2013-02-15 00:31:00,
2013-02-14 17:41:00,48.0,22.0,30.12,NE,41,4.0,13.0,35,0.00,,,0.00,,2013-02-15 00:41:00,
2013-02-14 17:52:00,47.0,22.0,30.12,NNE,21,4.0,10.0,37,0.00,,,0.00,,2013-02-15 00:52:00,
2013-02-14 18:01:00,46.0,21.0,30.12,NNW,336,5.0,10.0,37,0.00,,,0.00,,2013-02-15 01:01:00,
2013-02-14 18:11:00,46.0,21.0,30.12,NNW,336,5.0,10.0,37,0.00,,,0.00,,2013-02-15 01:11:00,
2013-02-14 18:21:00,45.0,22.0,30.12,North,355,3.0,9.0,39,0.00,,,0.00,,2013-02-15 01:21:00,
2013-02-14 18:31:00,44.0,21.0,30.12,NNW,335,5.0,12.0,40,0.00,,,0.00,,2013-02-15 01:31:00,
2013-02-14 18:41:00,44.0,21.0,30.12,NNW,335,5.0,12.0,40,0.00,,,0.00,,2013-02-15 01:41:00,
2013-02-14 18:51:00,43.0,21.0,30.13,NW,319,6.0,10.0,41,0.00,,,0.00,,2013-02-15 01:51:00,
2013-02-14 19:01:00,43.0,21.0,30.13,NNW,342,7.0,16.0,41,0.00,,,0.00,,2013-02-15 02:01:00,
2013-02-14 19:11:00,42.0,21.0,30.14,North,355,5.0,11.0,42,0.00,,,0.00,,2013-02-15 02:11:00,
2013-02-14 19:21:00,42.0,21.0,30.14,North,355,5.0,11.0,42,0.00,,,0.00,,2013-02-15 02:21:00,
2013-02-14 19:31:00,42.0,21.0,30.15,NNW,346,6.0,12.0,43,0.00,,,0.00,,2013-02-15 02:31:00,
2013-02-14 19:41:00,42.0,21.0,30.15,NNW,346,6.0,12.0,43,0.00,,,0.00,,2013-02-15 02:41:00,
2013-02-14 19:52:00,41.0,20.0,30.15,North,9,3.0,8.0,43,0.00,,,0.00,,2013-02-15 02:52:00,
2013-02-14 20:01:00,41.0,20.0,30.16,NE,48,6.0,9.0,42,0.00,,,0.00,,2013-02-15 03:01:00,
2013-02-14 20:11:00,41.0,19.0,30.16,NNE,32,4.0,11.0,41,0.00,,,0.00,,2013-02-15 03:11:00,
2013-02-14 20:21:00,41.0,19.0,30.16,NNE,32,4.0,11.0,41,0.00,,,0.00,,2013-02-15 03:21:00,
2013-02-14 20:31:00,40.0,19.0,30.16,NNE,22,2.0,9.0,43,0.00,,,0.00,,2013-02-15 03:31:00,
2013-02-14 20:41:00,40.0,19.0,30.16,NNE,22,2.0,9.0,43,0.00,,,0.00,,2013-02-15 03:41:00,
2013-02-14 20:52:00,38.0,20.0,30.16,NNE,30,6.0,10.0,47,0.00,,,0.00,,2013-02-15 03:52:00,
2013-02-14 21:01:00,37.0,20.0,30.16,NNE,32,3.0,9.0,49,0.00,,,0.00,,2013-02-15 04:01:00,
2013-02-14 21:11:00,37.0,20.0,30.16,NNE,32,3.0,9.0,49,0.00,,,0.00,,2013-02-15 04:11:00,
2013-02-14 21:21:00,38.0,21.0,30.17,North,10,3.0,10.0,49,0.00,,,0.00,,2013-02-15 04:21:00,
2013-02-14 21:31:00,38.0,20.0,30.17,NE,49,3.0,7.0,47,0.00,,,0.00,,2013-02-15 04:31:00,
2013-02-14 21:41:00,38.0,20.0,30.17,NE,49,3.0,7.0,47,0.00,,,0.00,,2013-02-15 04:41:00,
2013-02-14 21:52:00,39.0,20.0,30.18,NE,49,3.0,7.0,46,0.00,,,0.00,,2013-02-15 04:52:00,
2013-02-14 22:01:00,38.0,20.0,30.19,ENE,72,1.0,7.0,47,0.00,,,0.00,,2013-02-15 05:01:00,
2013-02-14 22:11:00,38.0,20.0,30.19,ENE,72,1.0,7.0,47,0.00,,,0.00,,2013-02-15 05:11:00,
2013-02-14 22:22:00,35.0,19.0,30.19,SSW,196,3.0,4.0,51,0.00,,,0.00,,2013-02-15 05:22:00,
2013-02-14 22:32:00,35.0,19.0,30.20,SSE,167,0.0,5.0,51,0.00,,,0.00,,2013-02-15 05:32:00,
2013-02-14 22:41:00,35.0,19.0,30.20,SSE,167,0.0,5.0,51,0.00,,,0.00,,2013-02-15 05:41:00,
2013-02-14 22:52:00,36.0,18.0,30.20,NNE,32,0.0,4.0,48,0.00,,,0.00,,2013-02-15 05:52:00,
2013-02-14 23:01:00,36.0,18.0,30.21,ENE,59,2.0,6.0,47,0.00,,,0.00,,2013-02-15 06:01:00,
2013-02-14 23:11:00,34.0,17.0,30.21,South,178,2.0,6.0,50,0.00,,,0.00,,2013-02-15 06:11:00,
2013-02-14 23:21:00,34.0,17.0,30.21,South,178,2.0,6.0,50,0.00,,,0.00,,2013-02-15 06:21:00,
2013-02-14 23:31:00,33.0,17.0,30.20,South,179,2.0,5.0,52,0.00,,,0.00,,2013-02-15 06:31:00,
2013-02-14 23:41:00,33.0,17.0,30.20,South,179,2.0,5.0,52,0.00,,,0.00,,2013-02-15 06:41:00,
2013-02-14 23:52:00,32.0,17.0,30.21,South,175,2.0,5.0,53,0.00,,,0.00,,2013-02-15 06:52:00,